Vorticity
13 22 23 18 16 16 14 24 17 26 16 9 15 -1 8 7 -10 16 18 9 -1 -1 -15 -3 14 5 -1 7 24 13 14 -12 7 7 7 17 11 1 16 -33 31 4 -6 -15
3 1 4 10 22 23 18 17 16 17 26 17 15 4 8 26 17 -1 5 4 2 14 6 4 17 -2 -19 -14 -20 -12 -10 6 20 59 44 17 5 -2 2 6 6 -11 -42 -24
6 10 0 5 10 16 17 16 16 28 22 1 23 36 27 18 19 25 -3 6 8 12 10 8 -0 3 6 29 28 27 17 41 -36 -42 -59 4 56 34 32 13 -7 14 -4 -10
2 -0 9 1 11 7 13 15 10 14 17 28 10 13 2 4 -6 25 48 54 66 39 34 37 31 25 31 14 -11 -14 24 3 4 -11 1 -19 -16 -25 -24 11 5 -22 -14 -0
5 2 -2 7 4 -2 2 8 5 5 8 14 7 4 11 6 11 1 1 -5 5 6 7 14 20 12 14 42 35 59 46 20 48 63 20 42 40 10 -1 15 14 20 18 -2
16 -1 4 2 5 -4 -2 4 2 -4 13 17 12 14 16 9 5 24 15 16 11 13 19 12 3 11 7 -4 -1 -6 2 14 -3 20 15 23 72 53 37 23 21 14 15 -4
19 12 11 3 5 3 6 3 3 2 3 3 7 8 7 10 13 12 6 12 30 28 5 5 8 2 2 -1 5 15 12 12 30 4 16 23 19 6 9 15 26 24 18 17
13 15 13 5 9 6 9 7 7 9 8 7 4 2 8 13 6 3 10 -0 2 8 12 20 27 25 31 36 21 19 24 20 3 2 10 -30 4 -15 -5 -7 -4 1 -5 -15
7 12 21 22 6 5 8 6 5 3 3 6 5 15 19 4 6 4 17 13 18 13 21 6 15 1 -1 24 3 -21 -4 11 28 -11 7 4 5 -18 7 13 3 9 17 18
14 2 9 19 18 7 2 7 9 5 3 3 6 3 -5 3 4 5 8 6 13 10 9 15 14 17 -4 20 1 8 9 6 11 7 1 17 9 8 11 37 12 -23 12 -6
-20 22 5 6 17 20 7 9 5 8 4 6 6 6 4 10 4 7 4 9 13 17 21 2 -1 7 11 16 0 -18 7 12 21 53 25 32 46 37 29 -1 19 24 10 16
30 24 -7 11 4 15 20 16 4 5 9 1 5 12 2 31 4 26 6 10 -1 8 9 12 6 -17 -19 -8 13 19 20 6 -28 -8 -54 -53 -22 -26 -17 -39 21 26 16 3
7 18 19 11 13 8 7 11 16 17 18 3 8 13 4 -1 16 18 10 12 8 9 -10 12 15 9 13 8 -6 9 1 8 13 25 -4 17 22 6 29 16 14 9 36 7
14 18 14 11 11 10 10 12 13 16 13 10 3 2 7 10 2 18 18 9 13 9 6 4 7 5 12 7 3 -2 -3 2 -7 -9 8 29 -1 27 23 7 16 15 8 4
20 18 14 13 12 13 12 10 10 7 2 -15 18 12 27 42 24 36 18 5 5 8 5 4 2 7 3 -0 9 13 2 23 27 23 32 -1 27 14 -6 15 19 18 10 4
10 14 11 9 10 6 8 12 15 10 12 7 -2 9 1 1 7 9 3 -1 7 8 9 6 1 7 19 27 8 16 21 33 -26 -9 19 15 2 -0 22 11 10 24 35 25
8 8 8 11 10 7 9 4 13 18 20 44 58 33 7 10 14 9 4 15 16 16 11 3 9 14 23 18 5 18 17 11 27 16 15 -1 6 18 8 10 3 9 11 24
11 13 13 14 15 13 8 22 39 22 33 6 8 5 10 6 1 10 6 7 16 14 6 8 8 20 7 -8 20 32 27 17 17 20 19 19 15 11 9 7 7 8 13 7
13 12 11 12 10 17 13 7 12 5 15 7 -0 -4 1 19 17 25 10 -1 2 16 1 18 29 12 -11 -8 6 9 12 9 10 11 6 10 14 14 11 11 14 10 11 10
7 9 11 13 10 11 11 13 9 18 -2 -4 -1 -2 -4 9 -0 9 32 19 18 9 8 33 30 4 13 11 5 7 8 11 9 12 13 12 16 14 16 17 17 18 16 11
3 5 7 6 11 18 15 12 11 8 10 25 16 5 6 5 9 20 18 7 7 17 9 16 23 3 16 7 12 10 7 10 10 10 11 15 20 22 19 16 13 12 16 20
8 1 9 9 10 15 12 18 16 10 26 13 -1 7 12 17 18 24 20 16 18 4 25 13 16 5 16 18 18 19 17 15 12 8 12 14 16 15 12 13 15 16 16 15
14 10 11 14 10 11 4 15 -0 10 -5 -5 -4 9 16 11 20 22 13 12 13 20 14 -3 1 9 13 11 12 13 12 13 12 12 12 13 15 16 17 16 16 14 14 15
4 13 -0 -1 7 14 9 1 2 4 2 3 3 8 6 10 26 6 7 13 10 12 6 -10 4 8 12 13 12 11 16 17 14 14 12 12 14 14 14 14 14 13 12 11
-13 8 14 24 6 -3 -2 9 13 12 13 14 16 22 21 11 -0 18 9 14 16 9 11 10 14 15 14 14 11 9 8 8 10 10 9 9 8 6 6 6 7 9 11 13
-9 -1 -2 6 16 15 18 17 17 19 21 22 24 24 20 24 10 14 7 10 13 12 14 12 13 12 12 12 11 9 8 7 6 5 5 4 4 4 4 4 4 5 4 4
14 9 9 16 9 3 7 2 5 11 19 20 25 14 1 15 15 15 15 5 2 7 6 7 8 7 8 8 7 6 4 3 3 4 5 6 6 6 6 7 7 7 7 7
Height
3035 3035 3038 3040 3042 3045 3047 3050 3053 3057 3068 3072 3067 3065 3065 3069 3072 3079 3081 3081 3084 3086 3091 3088 3088 3086 3090 3092 3094 3094 3094 3091 3086 3085 3087 3088 3087 3086 3088 3087 3085 3079 3077 3041
3031 3033 3034 3035 3038 3039 3040 3043 3045 3050 3056 3057 3057 3060 3061 3064 3066 3067 3070 3069 3071 3078 3077 3080 3077 3079 3083 3086 3087 3083 3088 3084 3080 3075 3078 3077 3073 3074 3077 3075 3076 3065 3074 3046
3028 3028 3030 3032 3034 3035 3036 3038 3039 3041 3046 3046 3049 3050 3051 3056 3053 3057 3057 3057 3059 3063 3062 3067 3059 3066 3073 3075 3073 3075 3077 3071 3065 3057 3063 3062 3061 3062 3064 3066 3061 3055 3040 3049
3023 3024 3026 3029 3031 3031 3033 3033 3034 3035 3037 3039 3039 3042 3042 3043 3043 3045 3044 3045 3048 3049 3050 3050 3052 3053 3054 3057 3058 3059 3062 3050 3052 3043 3047 3055 3053 3052 3052 3052 3046 3051 3027 3044
3017 3021 3022 3025 3028 3028 3031 3031 3032 3033 3034 3034 3035 3034 3037 3038 3039 3039 3038 3040 3040 3042 3043 3042 3044 3041 3044 3046 3044 3046 3045 3039 3037 3033 3034 3037 3036 3036 3036 3035 3034 3035 3035 3025
3010 3013 3017 3022 3023 3023 3026 3029 3028 3031 3030 3031 3032 3033 3033 3034 3034 3035 3035 3035 3036 3036 3038 3037 3037 3037 3040 3041 3041 3040 3038 3035 3034 3029 3029 3026 3022 3012 3018 3021 3022 3025 3021 3017
3003 3006 3011 3014 3018 3019 3021 3025 3025 3027 3027 3028 3028 3030 3030 3031 3031 3032 3033 3032 3032 3033 3032 3031 3032 3033 3033 3032 3034 3033 3031 3031 3030 3025 3025 3020 3009 3011 3012 3013 3012 3013 3011 3013
2996 2999 3004 3008 3010 3014 3017 3019 3021 3023 3021 3024 3024 3026 3026 3026 3027 3030 3030 3030 3028 3029 3029 3028 3027 3026 3024 3023 3023 3023 3023 3025 3023 3019 3016 3010 3009 3011 3010 3006 3005 3007 3007 3009
2990 2994 2997 3001 3004 3008 3011 3013 3015 3017 3018 3019 3021 3020 3023 3022 3023 3026 3026 3026 3024 3025 3025 3025 3024 3023 3021 3020 3019 3017 3017 3018 3018 3015 3011 3007 3004 3005 3005 3002 2999 3003 3003 3002
2983 2988 2991 2993 2998 3001 3004 3006 3009 3011 3012 3014 3015 3015 3018 3017 3019 3021 3022 3021 3022 3021 3021 3020 3020 3018 3020 3016 3014 3013 3012 3011 3010 3008 3006 3002 3000 3001 2998 3000 2998 2995 2997 2996
2978 2981 2983 2988 2992 2994 2997 3000 3003 3006 3005 3007 3009 3012 3013 3011 3014 3016 3018 3018 3016 3017 3018 3017 3017 3014 3014 3012 3009 3007 3009 3008 3005 3000 2998 2994 2991 2991 2993 2990 2987 2986 2986 2986
2970 2972 2977 2980 2985 2988 2990 2994 2997 2999 3000 3000 3000 3004 3004 3006 3007 3010 3011 3012 3011 3011 3012 3012 3010 3011 3010 3009 3006 3005 3004 3004 3003 3003 2996 2990 2987 2985 2984 2983 2981 2980 2977 2974
2964 2968 2972 2976 2978 2981 2983 2987 2990 2991 2992 2994 2994 2997 2999 2998 3000 3003 3005 3004 3005 3006 3006 3006 3007 3006 3005 3002 3001 2998 2997 2995 2992 2990 2988 2986 2984 2983 2980 2976 2974 2974 2973 2970
2958 2962 2966 2970 2973 2975 2977 2980 2984 2986 2986 2985 2987 2988 2991 2992 2993 2994 2996 2997 2998 3000 3002 3002 3001 3000 2998 2995 2994 2993 2993 2988 2983 2981 2980 2978 2978 2976 2973 2970 2968 2966 2965 2964
2955 2958 2961 2964 2967 2970 2972 2975 2977 2980 2982 2979 2980 2981 2982 2982 2986 2987 2989 2991 2992 2993 2995 2995 2994 2991 2991 2989 2987 2982 2982 2980 2978 2972 2972 2969 2967 2966 2965 2963 2959 2959 2958 2957
2953 2955 2958 2961 2964 2966 2968 2969 2971 2972 2974 2975 2975 2977 2977 2979 2981 2983 2985 2984 2985 2986 2989 2988 2985 2984 2984 2978 2972 2970 2971 2970 2968 2966 2963 2960 2957 2958 2957 2957 2954 2952 2950 2946
2952 2954 2956 2958 2960 2961 2963 2965 2966 2967 2968 2967 2966 2970 2974 2975 2976 2978 2979 2978 2978 2980 2981 2979 2977 2976 2975 2969 2962 2959 2962 2959 2958 2958 2955 2950 2950 2950 2950 2948 2946 2946 2943 2938
2950 2951 2953 2954 2956 2958 2960 2961 2961 2961 2964 2964 2965 2967 2970 2971 2972 2973 2973 2973 2974 2973 2973 2971 2970 2967 2963 2956 2951 2948 2949 2950 2949 2948 2946 2944 2943 2942 2942 2940 2938 2938 2937 2934
2946 2949 2950 2952 2953 2955 2957 2958 2958 2960 2964 2961 2962 2964 2966 2966 2966 2967 2968 2967 2967 2966 2962 2961 2960 2956 2952 2948 2946 2944 2944 2943 2942 2941 2939 2937 2935 2933 2932 2930 2929 2928 2928 2927
2944 2946 2948 2949 2950 2952 2954 2955 2957 2957 2957 2956 2957 2960 2961 2963 2962 2962 2962 2959 2958 2953 2953 2952 2948 2944 2942 2941 2939 2938 2938 2936 2934 2932 2930 2929 2927 2925 2923 2922 2921 2920 2920 2920
2939 2942 2945 2947 2948 2950 2951 2952 2953 2952 2950 2949 2950 2953 2954 2955 2955 2954 2954 2951 2950 2946 2947 2946 2940 2934 2934 2933 2932 2931 2930 2928 2927 2925 2923 2921 2919 2919 2918 2916 2914 2913 2912 2911
2939 2943 2944 2946 2947 2948 2948 2946 2946 2945 2946 2944 2945 2947 2948 2948 2948 2947 2946 2944 2942 2939 2938 2937 2930 2928 2926 2925 2925 2924 2923 2921 2920 2918 2916 2915 2913 2912 2910 2909 2908 2906 2905 2905
2937 2940 2942 2944 2944 2942 2940 2939 2938 2939 2939 2939 2940 2942 2942 2942 2942 2940 2939 2936 2934 2931 2930 2926 2922 2921 2920 2919 2918 2917 2916 2914 2913 2911 2910 2909 2907 2905 2903 2902 2901 2900 2900 2899
2937 2938 2939 2939 2935 2932 2931 2933 2934 2935 2935 2935 2936 2936 2936 2934 2934 2933 2930 2928 2925 2922 2920 2917 2915 2914 2913 2912 2911 2910 2909 2908 2907 2905 2904 2903 2901 2900 2898 2897 2896 2895 2894 2894
2934 2934 2932 2929 2928 2928 2929 2929 2930 2929 2929 2929 2929 2928 2929 2928 2927 2924 2922 2919 2916 2914 2911 2909 2908 2908 2907 2907 2906 2905 2904 2903 2901 2900 2899 2897 2896 2895 2894 2893 2892 2890 2889 2889
2929 2927 2925 2924 2925 2925 2925 2924 2924 2924 2924 2923 2923 2922 2921 2920 2919 2916 2913 2911 2908 2906 2906 2905 2904 2904 2903 2902 2901 2899 2898 2897 2896 2894 2892 2891 2889 2887 2887 2886 2885 2883 2882 2882
2922 2920 2921 2920 2920 2920 2920 2919 2918 2918 2918 2918 2917 2916 2915 2913 2911 2909 2907 2906 2905 2904 2903 2902 2901 2899 2897 2896 2895 2893 2892 2890 2888 2886 2884 2882 2881 2878 2877 2876 2876 2872 2871 2870